Weather reports worldwide

Advertisment
Strbske Pleso, Slovakia (11933): temperature & dewpoint: 15.02.2019 21:00:00 - 21.02.2019 21:00:00 (CET)Strbske Pleso, Slovakia (11933): wind speed: 15.02.2019 21:00:00 - 21.02.2019 21:00:00 (CET)Strbske Pleso, Slovakia (11933): wind direction: 15.02.2019 21:00:00 - 21.02.2019 21:00:00 (CET)Strbske Pleso, Slovakia (11933): visibility: 15.02.2019 21:00:00 - 21.02.2019 21:00:00 (CET)
Date & Time tt [°C] td [°C] ff [km/h] ff [kn] dd vv [km]
21.02.2019 21:00:00 -1,6 -2,0 4 2 N 0,1
21.02.2019 20:00:00 -1,4 -2,1 4 2 N 0,1
21.02.2019 19:00:00 -1,2 -2,3 7 4 N 15
21.02.2019 18:00:00 -1,1 -2,5 4 2 N 4,0
21.02.2019 17:00:00 -0,6 -2,8 7 4 N 30
21.02.2019 16:00:00 0,0 -3,2 11 6 W 28
21.02.2019 15:00:00 1,1 -3,6 7 4 N 30
21.02.2019 14:00:00 1,7 -3,4 7 4 N 35
21.02.2019 13:00:00 0,8 -4,2 7 4 N 35
21.02.2019 12:00:00 1,6 -4,7 7 4 N 30
21.02.2019 11:00:00 3,4 -5,3 7 4 N 25
21.02.2019 10:00:00 1,6 -3,8 4 2 N 25
21.02.2019 09:00:00 -0,8 -5,0 0 0 N 20
21.02.2019 08:00:00 -2,9 -4,9 0 0 N 20
21.02.2019 07:00:00 -4,2 -6,3 0 0 N 25
21.02.2019 06:00:00 -5,0 -7,9 4 2 N -
21.02.2019 05:00:00 -5,5 -8,2 4 2 - -
21.02.2019 04:00:00 -5,8 -8,7 4 2 N -
21.02.2019 03:00:00 -4,9 -8,5 4 2 N -
21.02.2019 02:00:00 -3,7 -7,5 7 4 N -
21.02.2019 01:00:00 -5,3 -8,5 4 2 N -
21.02.2019 00:00:00 -3,7 -7,8 7 4 N -
20.02.2019 23:00:00 -4,6 -8,9 0 0 N -
20.02.2019 22:00:00 -3,8 -8,6 4 2 - -
20.02.2019 21:00:00 -2,9 -8,6 4 2 - 40
20.02.2019 20:00:00 -2,5 -8,2 4 2 - 40
20.02.2019 19:00:00 -2,3 -7,8 4 2 N 30
20.02.2019 18:00:00 -2,0 -7,5 4 2 - 35
20.02.2019 17:00:00 -1,7 -6,8 4 2 - 35
20.02.2019 16:00:00 -1,2 -6,3 7 4 - 30
20.02.2019 15:00:00 -0,7 -7,5 4 2 - 40
20.02.2019 14:00:00 -0,2 -7,2 7 4 N 25
20.02.2019 13:00:00 -0,1 -7,4 7 4 N 30
20.02.2019 12:00:00 -0,2 -6,4 4 2 - 35
20.02.2019 11:00:00 2,8 -7,7 7 4 N 35
20.02.2019 10:00:00 2,1 -9,5 7 4 N 20
20.02.2019 09:00:00 -1,4 -3,4 4 2 N 12
20.02.2019 08:00:00 -3,0 -4,2 4 2 N 1,5
20.02.2019 07:00:00 -2,9 -5,9 4 2 N 30
20.02.2019 06:00:00 -2,1 -7,2 4 2 N 20
20.02.2019 05:00:00 -2,7 -5,0 4 2 N -
20.02.2019 04:00:00 -1,6 -3,6 4 2 N -
20.02.2019 03:00:00 -0,6 -2,2 4 2 N -
20.02.2019 02:00:00 0,6 -1,9 7 4 N -
20.02.2019 01:00:00 0,4 -2,1 7 4 - -
20.02.2019 00:00:00 0,2 -2,7 7 4 N -
19.02.2019 23:00:00 -0,1 -4,0 7 4 N -
19.02.2019 22:00:00 0,0 -4,4 4 2 N -
19.02.2019 21:00:00 0,5 -4,1 4 2 N 30
19.02.2019 20:00:00 1,0 -4,0 7 4 - 30
19.02.2019 19:00:00 1,7 -5,0 4 2 - 30
19.02.2019 18:00:00 2,1 -4,2 4 2 N 35
19.02.2019 17:00:00 2,8 -3,8 4 2 N 35
19.02.2019 16:00:00 4,6 -5,2 7 4 N 50
19.02.2019 15:00:00 5,9 -6,0 7 4 N 55
19.02.2019 14:00:00 6,7 -6,3 4 2 N 60
19.02.2019 13:00:00 6,8 -6,5 7 4 N 60
19.02.2019 12:00:00 7,7 -6,8 4 2 N 70
19.02.2019 11:00:00 7,9 -7,0 4 2 N 70
19.02.2019 10:00:00 6,3 -7,0 4 2 N 70
19.02.2019 09:00:00 3,2 -7,0 4 2 N 70
19.02.2019 08:00:00 2,5 -8,2 7 4 W 70
19.02.2019 07:00:00 1,6 -9,0 7 4 N 70
19.02.2019 06:00:00 1,6 -10,5 7 4 N 50
19.02.2019 05:00:00 1,7 -10,4 7 4 N -
19.02.2019 04:00:00 1,4 -11,7 4 2 N -
19.02.2019 03:00:00 2,2 -12,8 4 2 N -
19.02.2019 02:00:00 -0,3 -12,3 0 0 N -
19.02.2019 01:00:00 0,5 -12,2 0 0 N -
19.02.2019 00:00:00 2,0 -12,6 4 2 - -
18.02.2019 23:00:00 -0,4 -11,4 0 0 N -
18.02.2019 22:00:00 0,3 -11,1 0 0 N -
18.02.2019 21:00:00 0,0 -9,7 0 0 N 50
18.02.2019 20:00:00 -0,2 -8,1 4 2 N 50
18.02.2019 19:00:00 0,0 -6,8 0 0 N 60
18.02.2019 18:00:00 2,4 -7,5 4 2 N 60
18.02.2019 17:00:00 3,0 -5,6 4 2 N 70
18.02.2019 16:00:00 6,9 -8,6 0 0 N 70
18.02.2019 15:00:00 7,8 -8,3 4 2 N 75
18.02.2019 14:00:00 9,0 -9,5 4 2 N 75
18.02.2019 13:00:00 10,0 -9,6 4 2 N 75
18.02.2019 12:00:00 11,1 -9,2 4 2 N 75
18.02.2019 11:00:00 11,0 -9,9 4 2 N 75
18.02.2019 10:00:00 9,6 -8,0 0 0 N 75
18.02.2019 09:00:00 5,1 -10,2 0 0 N 75
18.02.2019 08:00:00 1,0 -8,8 0 0 N 75
18.02.2019 07:00:00 0,2 -10,0 4 2 N 75
18.02.2019 06:00:00 -2,1 -9,7 4 2 N 70
18.02.2019 05:00:00 -1,0 -10,9 0 0 N -
18.02.2019 04:00:00 -0,2 -11,0 0 0 N -
18.02.2019 03:00:00 -0,8 -10,2 0 0 N -
18.02.2019 02:00:00 -0,4 -10,1 0 0 N -
18.02.2019 01:00:00 1,2 -10,6 4 2 N -
18.02.2019 00:00:00 0,7 -10,2 4 2 N -
17.02.2019 23:00:00 -0,1 -10,0 0 0 N -
17.02.2019 22:00:00 -1,0 -8,7 0 0 N -
17.02.2019 21:00:00 2,4 -10,8 4 2 - 50
17.02.2019 20:00:00 0,3 -8,9 0 0 N 50
17.02.2019 19:00:00 1,6 -9,3 4 2 N 60
17.02.2019 18:00:00 4,6 -9,2 4 2 N 60
17.02.2019 17:00:00 4,7 -5,1 0 0 N 70
17.02.2019 16:00:00 7,3 -7,1 4 2 N 70
17.02.2019 15:00:00 8,6 -7,2 4 2 N 75
17.02.2019 14:00:00 9,6 -8,0 4 2 N 75
17.02.2019 13:00:00 10,6 -8,1 4 2 N 75
17.02.2019 12:00:00 11,5 -8,9 7 4 - 80
17.02.2019 11:00:00 10,7 -7,5 4 2 N 75
17.02.2019 10:00:00 8,3 -8,2 4 2 N 75
17.02.2019 09:00:00 5,3 -11,3 4 2 N 75
17.02.2019 08:00:00 3,4 -11,0 0 0 N 75
17.02.2019 07:00:00 3,6 -12,4 4 2 - 80
17.02.2019 06:00:00 0,2 -10,3 4 2 N -
17.02.2019 05:00:00 1,0 -9,9 0 0 N -
17.02.2019 04:00:00 1,3 -10,2 0 0 N -
17.02.2019 03:00:00 0,8 -9,2 4 2 N -
17.02.2019 02:00:00 -0,3 -8,2 4 2 N -
17.02.2019 01:00:00 0,2 -7,1 4 2 - -
17.02.2019 00:00:00 0,6 -5,6 4 2 N -
16.02.2019 23:00:00 0,9 -4,7 4 2 N -
16.02.2019 22:00:00 0,1 -4,5 4 2 N -
16.02.2019 21:00:00 -0,2 -4,3 0 0 N 50
16.02.2019 20:00:00 -0,1 -4,0 0 0 N 50
16.02.2019 19:00:00 0,7 -3,6 0 0 N 60
16.02.2019 18:00:00 1,0 -3,3 0 0 N 70
16.02.2019 17:00:00 3,5 -2,6 0 0 N 75
16.02.2019 16:00:00 6,3 -3,6 0 0 N 75
16.02.2019 15:00:00 7,4 -3,4 4 2 N 75
16.02.2019 14:00:00 8,1 -4,0 4 2 N 75
16.02.2019 13:00:00 8,9 -4,3 4 2 N 75
16.02.2019 12:00:00 9,5 -4,4 4 2 N 75
16.02.2019 11:00:00 9,1 -3,4 4 2 N 75
16.02.2019 10:00:00 7,2 -2,8 4 2 N 75
16.02.2019 09:00:00 2,8 -3,5 4 2 N 75
16.02.2019 08:00:00 -0,6 -5,2 0 0 N 75
16.02.2019 07:00:00 -1,7 -5,4 4 2 N 60
16.02.2019 06:00:00 -1,2 -6,3 4 2 N 60
16.02.2019 05:00:00 -1,2 -6,5 7 4 N -
16.02.2019 04:00:00 -2,3 -6,5 4 2 N -
16.02.2019 03:00:00 -2,5 -6,5 4 2 N -
16.02.2019 02:00:00 -1,7 -6,3 0 0 N -
16.02.2019 01:00:00 -1,4 -5,4 0 0 N -
16.02.2019 00:00:00 -2,2 -5,0 0 0 N -
15.02.2019 23:00:00 -2,4 -4,6 4 2 N -
15.02.2019 22:00:00 -2,5 -5,1 0 0 N -
15.02.2019 21:00:00 -2,9 -5,2 0 0 N 35

tt = temperature
td = dewpoint
ff = wind speed
dd = wind direction
vv = visibility

Next stations